Regional Weather Roundup
Issued by NWS Sterling, VA

Home | Current Version | Previous Version | Text Only | Print | Product List | Glossary On
Versions: 1 2 3 4 5 6 7 8 9 10 11 12 13 14 15 16 17 18 19 20 21 22 23 24 25 26 27 28 29 30 31 32 33 34 35 36 37 38 39 40 41 42 43 44 45 46 47 48 49 50
000
ASUS41 KLWX 260110
RWRLWX

REGIONAL WEATHER ROUNDUP
NATIONAL WEATHER SERVICE BALTIMORE MD/WASHINGTON DC
900 PM EDT SAT APR 25 2015

Note: "FAIR" indicates few or no clouds below 12,000 feet
with no significant weather and/or obstructions to visibility.
 TC=TEMPERATURE CELSIUS

 * =Non NWS site. Station does not report precipitation (e.g. rain,
    snow, etc.), thunder, or fog.

DCZ001-MDZ009-015-VAZ040>042-051-053>054-260200-
WASHINGTON METRO

CITY           SKY/WX    TMP DP  RH WIND       PRES   REMARKS
WASHINGTON NAT LGT RAIN  46  38  73 W5        29.76F
DULLES         LGT RAIN  41  39  93 CALM      29.76S FOG
ANDREWS AFB    LGT RAIN  43  43 100 W6        29.74R
FT BELVOIR     LGT RAIN  43  40  90 NW6       29.76R
QUANTICO       RAIN      44  39  82 N6        29.76S
COLLEGE PARK*  CLOUDY    45  41  87 W3          N/A
LEESBURG*      LGT RAIN  41  41 100 W3        29.78R
MANASSAS*      RAIN      43  43 100 CALM      29.75F
GAITHERSBURG*  CLOUDY    41  36  81 W6        29.79R

$$

MDZ006>007-011-014-260200-
BALTIMORE METRO

CITY           SKY/WX    TMP DP  RH WIND       PRES   REMARKS
BWI AIRPORT    LGT RAIN  43  39  86 W6        29.74F
MD SCIENCE CTR   N/A     47  35  63 MISG      29.75S
MARTIN STATE   PTCLDY    52  37  58 SW8       29.75S
ANNAPOLIS      LGT RAIN  44  40  85 SW6       29.75F
FORT MEADE*    CLOUDY    43  41  93 CALM      29.77F

$$

MDZ012-015-019>023-260200-
MARYLAND EASTERN SHORE

CITY           SKY/WX    TMP DP  RH WIND       PRES   REMARKS
OCEAN CITY     LGT RAIN  45  43  93 CALM      29.76F FOG
SALISBURY      LGT RAIN  45  44  97 S3        29.75F FOG
BAY BRIDGE AP* LGT RAIN N/A N/A N/A SW5       29.75F
CAMBRIDGE*     CLOUDY    45  41  87 CALM      29.75F

$$

MDZ017>025-260200-
SOUTHERN MARYLAND

CITY           SKY/WX    TMP DP  RH WIND       PRES   REMARKS
PATUXENT RIVER CLOUDY    44  42  93 E6        29.72F
ST INIGOES     LGT RAIN  44  43  96 E5        29.71F
LEONARDTOWN*   CLOUDY    45  41  87 E3        29.73F

$$

MDZ003>005-260200-
NORTH CENTRAL MARYLAND

CITY           SKY/WX    TMP DP  RH WIND       PRES   REMARKS
FREDERICK*     DRIZZLE   41  34  75 SW10      29.79R
HAGERSTOWN APT CLOUDY    45  28  51 SW9       29.74R
WESTMINSTER*   CLOUDY    46  21  36 CALM      29.72F

$$

MDZ501>502-260200-
WESTERN MARYLAND

CITY           SKY/WX    TMP DP  RH WIND       PRES   REMARKS
OAKLAND*       CLOUDY    32 N/A N/A E6        29.69R FOG
CUMBERLAND*      N/A     41  37  87 MISG      29.79R

$$

VAZ025>031-260200-
SHENANDOAH VALLEY

CITY           SKY/WX    TMP DP  RH WIND       PRES   REMARKS
WINCHESTER*    LGT RAIN  41  36  81 CALM      29.75R
FRONT ROYAL*   CLOUDY    39  37  93 CALM      29.74R
LURAY*         DRIZZLE   43  43 100 CALM      29.73R
NEW MARKET*    CLOUDY    41  40  96 CALM      29.73R
STAUNTON*      RAIN      40  38  93 CALM      29.72F
WAYNESBORO*    CLOUDY    38  37  99 S6        29.71S

$$

WVZ021-048>050-054>055-260200-
EASTERN WEST VIRGINIA PANHANDLE

CITY           SKY/WX    TMP DP  RH WIND       PRES   REMARKS
MARTINSBURG    LGT RAIN  40  36  86 SW3       29.77R
PETERSBURG*    LGT RAIN  41  37  83 NW3       29.74S

$$

VAZ036>039-050-260200-
CENTRAL FOOTHILLS

CITY           SKY/WX    TMP DP  RH WIND       PRES   REMARKS
CHARLOTTESVILL RAIN      40  39  97 CALM      29.73F FOG
CULPEPER*      LGT RAIN  43  43 100 N3        29.75F
ORANGE*        RAIN      41  41 100 CALM      29.75F
GORDONSVILLE*  CLOUDY    40  39  97 CALM      29.72F FOG
WARRENTON*     LGT RAIN  42  41  98 CALM      29.74S

$$

VAZ055>057-260200-
NORTH AND CENTRAL PIEDMONT

CITY           SKY/WX    TMP DP  RH WIND       PRES   REMARKS
FREDERICKSBRG* RAIN      44  44 100 N5        29.73F
STAFFORD*      HVY RAIN  41  32  69 CALM      29.77F

$$

NCZ024-NYZ072-PAZ021-071-VAZ022-071-260200-
OTHER REGIONAL OBSERVATIONS

CITY           SKY/WX    TMP DP  RH WIND       PRES   REMARKS
NEW YORK CITY  CLEAR     52  34  50 CALM      29.73R
PHILADELPHIA   CLOUDY    52  27  38 SW12      29.74S
PITTSBURGH     CLOUDY    51  16  24 NW5       29.70S
ROANOKE        CLOUDY    41  41 100 N15G21    29.79R FOG
RICHMOND       DRIZZLE   46  44  93 E6        29.70F FOG
RALEIGH        LGT RAIN  51  50  96 N5        29.65S VSB 1/2

$$

ANZ530>537-260200-
MARINE OBSERVATIONS

STATION/POSITION TIME  TEMP    WIND        PRES
                       AIR SEA DIR/SP/G
                 (UTC) (F)     (DEG/KT/KT) (MB)
THOMAS PT LIGHT  0100   45 52  260/  7/  7 1007.8F
BALT KEY BRIDGE  0000   48     220/ 15/ 19 1007.0F
COVE POINT       0000   44      CALM  /  1 1008.3F
LEWISETTA        0000   44 56              1007.3F
SOLOMONS ISLAND  0000      55                N/A
PINEY POINT      0000          130/  9/ 10   N/A

$$



USA.gov is the U.S. government's official web portal to all federal, state and local government web resources and services.